Temperature
8 9 9 9 9 10 10 10 11 11 12 12 12 13 13 13 13 13 13 13 14 14 14 14 14 14 14 14 15 15 15 15 15 15 16 16 16 16 16 16 17 17 17
8 9 9 9 10 10 10 10 11 11 11 12 12 12 12 12 12 13 13 13 13 13 13 13 14 14 14 14 14 14 15 15 15 15 15 15 16 16 16 16 16 16 16
8 9 10 10 10 10 10 10 10 10 11 11 11 11 12 12 12 12 12 13 13 13 13 13 13 13 14 14 14 14 14 14 15 15 15 15 15 15 16 16 16 16 16
8 9 9 9 9 10 10 10 10 10 10 10 10 11 11 11 11 11 12 12 12 12 12 12 12 13 13 13 14 14 14 14 14 15 15 15 15 15 15 16 16 16 16
9 9 9 9 9 9 9 9 9 9 9 9 9 9 9 10 10 10 11 11 11 11 11 11 12 12 12 13 13 13 13 14 14 14 14 15 15 15 15 15 16 16 16
9 9 9 9 9 9 9 9 9 8 8 8 8 8 8 8 8 8 9 9 9 10 10 10 11 11 11 12 12 13 13 13 14 14 14 14 15 15 15 15 15 16 16
8 8 9 9 8 8 8 8 7 7 7 7 7 7 7 7 7 7 7 7 7 8 8 9 9 10 10 11 12 12 13 13 13 13 14 14 14 14 15 15 15 15 16
8 8 8 8 8 8 7 7 6 6 6 5 5 5 5 6 6 5 6 6 6 6 6 7 8 8 9 10 11 11 12 12 13 13 13 13 14 14 14 15 15 15 15
8 8 8 7 7 7 6 6 5 5 4 4 4 4 4 4 5 4 5 5 5 5 5 5 6 7 7 8 9 10 11 11 12 12 13 13 13 13 14 14 14 15 15
7 7 7 6 6 5 5 5 4 4 3 3 3 3 3 3 3 3 4 4 4 4 4 4 5 5 6 7 8 9 9 10 11 11 12 12 13 13 13 14 14 14 15
7 6 6 5 5 4 4 3 3 3 3 2 2 2 2 2 2 2 2 2 3 3 3 4 4 4 5 6 7 7 8 9 10 10 11 11 12 12 13 13 14 14 14
5 5 4 4 3 3 3 3 2 2 2 1 1 1 1 1 1 1 1 1 2 2 2 3 3 3 4 5 5 6 7 8 9 9 10 11 11 12 12 13 13 14 14
4 4 3 3 2 2 2 2 2 1 1 1 1 0 0 0 0 1 1 1 1 1 1 2 2 2 3 3 4 5 5 6 7 8 9 10 10 11 12 12 12 13 14
3 3 2 2 2 2 1 1 1 1 0 -0 -0 -1 -1 -1 -1 -1 -1 -1 -1 -1 -0 0 0 1 1 2 2 3 4 4 5 7 8 9 10 10 11 11 12 12 13
2 2 2 2 2 1 1 1 0 0 -0 -1 -1 -1 -1 -2 -2 -2 -2 -2 -2 -2 -2 -1 -1 -1 -0 1 1 2 2 3 4 5 6 8 9 9 10 11 11 12 12
2 1 1 1 1 1 1 0 -0 -0 -1 -1 -1 -2 -2 -2 -3 -3 -3 -3 -3 -3 -3 -3 -3 -2 -2 -1 -0 0 1 2 3 4 5 6 7 8 9 10 11 11 12
1 1 1 1 1 1 0 -0 -1 -1 -1 -2 -2 -3 -3 -3 -4 -4 -4 -4 -4 -4 -4 -4 -4 -3 -3 -2 -1 -1 0 1 2 3 3 4 6 7 8 9 10 11 11
1 1 1 1 1 0 -0 -1 -1 -2 -2 -3 -3 -4 -4 -4 -5 -5 -5 -6 -6 -6 -5 -5 -5 -5 -4 -4 -3 -2 -1 0 1 1 2 3 4 5 6 8 9 10 11
0 0 0 0 0 -0 -1 -1 -2 -2 -3 -3 -4 -4 -5 -5 -6 -6 -6 -7 -7 -7 -6 -6 -6 -6 -6 -5 -4 -3 -2 -1 -0 0 1 1 2 3 4 6 8 9 10
-0 -1 -0 -0 -0 -1 -1 -2 -2 -3 -3 -4 -4 -5 -6 -6 -6 -7 -7 -8 -8 -8 -7 -7 -7 -7 -7 -7 -6 -5 -3 -2 -1 -1 -1 -0 0 1 3 4 6 8 9
-1 -1 -1 -1 -1 -1 -2 -2 -3 -3 -4 -4 -5 -6 -6 -7 -7 -8 -8 -8 -9 -9 -9 -9 -9 -8 -8 -8 -8 -6 -3 -2 -3 -3 -2 -1 -1 0 2 3 5 6 8
-1 -1 -1 -1 -2 -3 -3 -4 -4 -5 -5 -5 -6 -6 -7 -7 -8 -9 -9 -9 -10 -10 -10 -10 -10 -10 -10 -10 -10 -9 -8 -6 -4 -3 -3 -3 -2 -1 1 2 3 5 6
-1 -1 -2 -2 -3 -3 -4 -4 -4 -4 -5 -5 -6 -7 -7 -8 -9 -9 -10 -10 -11 -11 -11 -11 -11 -11 -11 -10 -10 -10 -9 -8 -9 -6 -5 -4 -4 -2 -1 0 2 3 5
-2 -2 -2 -3 -3 -4 -4 -5 -5 -6 -6 -7 -7 -8 -8 -9 -9 -10 -11 -11 -11 -12 -12 -12 -12 -12 -12 -12 -11 -11 -10 -10 -9 -8 -7 -6 -5 -4 -2 -1 1 2 3
-2 -2 -3 -3 -4 -4 -5 -5 -6 -6 -7 -7 -8 -8 -9 -9 -10 -11 -11 -12 -12 -12 -12 -12 -12 -12 -12 -12 -12 -11 -11 -10 -9 -9 -8 -7 -6 -5 -3 -2 -1 1 2
-2 -3 -3 -3 -4 -5 -5 -6 -6 -7 -7 -8 -9 -9 -10 -10 -11 -11 -12 -12 -12 -12 -13 -13 -12 -12 -12 -12 -12 -12 -11 -11 -10 -10 -9 -8 -7 -6 -4 -3 -2 -1 1
Wind_Speed
12 25 28 29 29 30 30 30 30 30 30 31 31 31 31 30 30 30 30 30 29 29 29 28 27 26 24 22 20 18 16 14 12 11 9 8 8 6 5 5 4 4 5
16 24 28 29 29 30 30 30 30 30 30 30 30 30 30 30 30 30 30 30 30 29 29 29 28 28 27 25 23 20 18 16 14 12 10 9 8 8 8 7 6 6 7
20 24 26 29 29 30 30 30 30 30 30 29 29 30 30 30 30 30 30 30 30 29 29 29 28 28 28 27 26 24 21 18 16 14 12 10 9 10 10 9 9 8 9
20 23 26 29 29 29 30 30 29 29 29 29 29 29 29 30 30 30 30 30 30 30 29 29 29 28 28 27 27 26 24 22 19 16 12 10 9 10 11 11 11 11 11
21 25 27 29 29 29 29 29 29 29 29 29 29 29 29 29 30 30 30 30 30 30 29 29 29 29 28 28 27 27 26 25 23 17 13 11 11 13 14 13 13 14 13
21 25 27 29 29 29 29 29 29 29 29 28 29 29 29 29 29 29 30 30 30 30 29 29 29 29 29 28 28 27 27 26 23 17 14 12 12 14 16 16 15 16 16
19 23 27 29 29 28 28 29 29 29 29 28 29 29 29 29 29 29 29 30 30 30 29 29 29 29 29 29 28 27 27 27 21 17 15 13 12 15 17 17 17 18 19
19 22 25 28 29 28 28 28 28 28 28 28 28 29 29 29 29 29 29 29 29 29 29 29 30 29 29 28 28 28 27 26 20 18 17 14 15 16 17 18 18 19 21
19 22 24 25 26 26 26 27 27 27 27 27 28 29 29 29 29 29 29 29 29 29 29 29 30 30 29 28 27 27 28 25 19 17 17 15 16 18 18 18 19 19 21
18 21 23 24 25 24 23 25 26 25 26 26 28 28 28 28 28 28 28 29 29 29 29 29 30 29 29 27 27 28 27 21 20 19 15 16 20 20 19 19 19 19 21
13 17 22 22 23 23 20 22 23 22 24 24 25 27 25 24 24 24 27 28 29 29 29 29 30 29 28 26 27 27 23 18 22 16 16 19 23 23 21 20 19 19 21
11 10 18 20 21 21 18 19 20 19 21 21 23 24 22 22 22 23 24 26 27 28 28 29 29 27 24 21 23 24 18 21 17 16 17 23 24 24 23 22 20 20 20
6 7 14 17 18 19 18 17 19 18 19 20 22 23 22 21 20 21 20 21 23 24 23 25 24 21 21 21 20 20 19 19 16 17 19 25 25 25 24 23 22 21 20
6 7 9 15 15 17 17 16 17 17 17 18 20 21 21 18 18 19 17 19 19 20 21 21 20 22 22 21 20 19 19 18 17 17 19 25 26 26 25 24 23 22 21
7 7 7 12 14 15 16 15 16 17 16 18 18 20 21 18 17 18 17 17 19 20 20 19 19 20 20 20 19 19 19 20 20 19 19 25 27 25 24 23 23 22 21
6 7 8 9 14 15 15 15 15 17 17 17 18 20 21 19 18 17 16 16 18 20 20 19 19 17 16 17 16 18 19 20 18 20 20 22 24 24 23 22 22 21 21
4 7 8 10 14 15 15 16 16 17 18 17 18 20 20 20 19 18 14 14 18 20 20 19 17 16 14 14 14 16 16 17 19 20 19 18 18 20 20 20 20 20 20
5 6 8 11 13 14 15 16 17 17 17 17 18 18 19 20 19 17 14 14 19 19 17 14 10 12 12 13 14 14 13 15 17 18 17 16 15 14 16 19 19 18 18
5 6 7 9 11 14 15 16 16 16 16 17 18 17 19 19 19 18 14 15 18 16 14 13 10 11 13 13 14 14 13 14 13 14 13 13 13 13 13 16 18 16 16
5 5 6 8 11 14 14 13 12 13 14 16 17 17 19 19 20 18 14 16 17 12 9 9 12 11 10 12 15 14 15 14 11 9 10 9 9 13 15 15 14 14 16
5 6 6 8 9 11 7 7 7 8 7 12 15 18 19 20 20 18 15 15 14 9 9 10 11 12 10 11 10 13 12 11 7 7 7 7 7 12 15 15 14 13 12
5 7 7 8 8 10 9 8 6 7 7 11 14 16 18 20 19 17 17 15 14 9 10 10 11 8 9 9 8 10 7 7 7 10 8 7 8 10 12 15 15 14 13
5 7 8 8 8 11 13 11 10 5 4 5 6 8 17 20 20 19 18 17 15 9 9 10 9 10 11 9 6 5 6 6 12 6 7 7 10 11 11 11 13 14 14
5 6 7 8 7 11 13 9 9 9 9 9 7 9 17 19 19 19 19 18 15 13 9 10 9 9 10 10 8 5 7 8 7 8 6 7 10 11 12 13 12 12 13
5 6 7 7 7 10 12 9 8 8 7 8 8 9 10 15 17 19 19 18 16 13 11 10 10 9 8 9 8 8 9 9 9 9 12 11 10 9 11 12 10 9 11
5 6 6 8 8 8 9 9 9 10 10 12 12 10 10 8 13 17 19 18 17 15 12 11 9 10 9 10 9 8 8 8 8 9 11 14 13 10 12 10 8 8 9
Wind_Direction
344 353 7 14 17 19 21 22 22 22 22 21 20 19 18 17 16 15 13 11 9 7 5 3 1 358 353 348 343 338 331 325 318 312 308 307 304 288 268 258 261 255 217
353 1 10 16 18 20 21 21 21 21 20 20 19 18 17 15 14 13 11 9 8 6 4 2 1 359 357 353 347 340 332 324 317 309 302 297 296 290 271 253 246 247 223
7 6 11 17 19 20 20 20 20 19 19 18 17 16 15 13 12 11 9 7 5 3 2 1 359 357 356 354 351 344 337 328 319 311 303 290 283 283 272 256 243 242 227
16 13 14 19 20 20 20 20 19 18 17 16 16 15 13 11 10 9 7 5 3 1 0 359 357 355 354 351 349 346 342 336 327 317 304 285 276 277 273 261 246 240 231
25 19 16 21 20 20 20 19 18 17 16 15 15 13 12 10 8 7 5 2 1 359 358 356 354 353 351 350 347 345 344 341 335 324 307 288 274 273 273 266 251 241 234
31 24 19 22 20 19 19 18 17 16 15 15 13 12 10 8 6 5 3 1 359 357 356 354 352 350 349 347 345 344 344 342 337 327 311 293 276 274 272 266 256 242 234
35 29 23 23 20 19 18 17 16 15 15 14 12 11 9 7 4 3 1 358 357 355 353 352 350 348 346 345 344 343 343 341 337 329 319 303 287 281 274 269 260 245 233
40 33 28 24 21 18 17 17 15 15 14 13 12 10 8 5 2 1 359 356 355 354 352 350 348 346 345 344 343 342 341 341 340 333 323 310 301 292 280 271 264 250 234
45 37 30 25 21 17 16 16 14 15 14 13 11 9 7 4 1 359 357 354 354 352 351 349 347 345 344 343 342 341 339 339 344 332 323 317 313 305 292 279 269 255 239
47 38 30 26 21 15 15 16 14 15 14 14 11 8 7 3 360 358 355 353 353 352 351 348 346 345 344 342 341 339 339 341 338 327 322 317 320 313 300 290 276 261 245
38 36 29 25 21 16 16 16 13 14 13 13 10 7 5 360 356 356 352 352 352 351 350 347 345 345 344 340 338 337 339 336 328 322 318 316 320 317 311 298 286 270 252
23 25 27 22 18 16 15 14 12 10 8 8 6 4 1 357 355 355 350 352 352 350 349 345 344 344 341 336 334 335 331 329 324 320 314 315 316 315 311 307 295 280 261
14 18 24 20 16 17 13 14 14 7 5 5 4 2 358 356 353 350 348 349 348 348 346 343 341 339 335 332 328 326 325 326 319 315 310 311 312 312 308 303 299 288 271
17 10 14 19 15 16 16 10 14 6 2 1 359 360 358 354 350 347 345 345 347 345 341 339 335 332 330 327 324 322 322 320 314 310 306 308 309 308 305 301 295 290 278
14 355 355 20 15 14 14 10 9 3 359 357 357 358 357 352 347 344 341 344 345 344 340 336 333 329 329 326 323 322 318 314 308 306 305 305 305 305 302 299 294 289 284
358 348 347 23 16 15 13 7 4 360 356 355 355 355 355 351 346 344 339 343 344 342 337 333 326 328 325 322 319 319 314 309 306 305 302 301 302 303 302 300 295 290 287
351 347 349 18 14 12 10 6 360 355 354 351 350 350 351 348 345 343 337 340 341 338 335 333 327 330 325 322 318 316 311 309 305 302 300 298 298 303 307 307 301 294 288
357 345 343 5 6 7 6 360 353 349 348 345 343 344 346 344 342 341 335 337 337 336 335 331 333 331 326 323 319 314 310 306 302 300 298 296 299 304 313 315 312 304 295
347 331 332 347 0 1 358 353 347 343 341 339 338 339 341 340 339 337 330 334 335 334 333 331 334 327 324 323 318 312 309 302 296 296 297 298 306 317 322 322 324 320 313
335 320 325 347 359 358 354 348 341 338 336 336 335 337 338 337 336 333 330 332 332 332 329 328 326 323 322 321 318 312 305 294 288 291 295 305 321 334 336 332 330 327 325
330 333 343 355 355 357 352 347 338 334 327 328 334 335 333 332 332 329 331 328 328 326 323 322 324 322 325 327 321 320 304 288 290 322 314 314 338 345 341 337 333 330 327
330 338 351 356 348 349 343 330 318 313 309 316 323 324 329 330 329 331 329 324 322 321 319 322 323 322 324 334 324 324 319 317 345 323 312 324 349 342 338 336 330 330 326
338 344 352 344 339 339 338 333 331 313 301 316 323 323 329 329 327 325 323 321 319 318 315 316 313 321 322 321 318 311 320 321 324 294 309 334 344 338 333 328 327 328 329
341 343 343 336 332 335 340 338 338 343 335 327 324 320 324 325 324 324 323 320 318 317 310 311 323 311 312 317 316 289 291 298 301 309 313 323 333 330 328 325 322 325 333
349 341 336 332 328 335 339 336 332 326 317 318 320 317 319 322 322 323 322 319 318 316 308 305 305 303 305 303 304 300 299 295 278 291 303 317 322 319 320 316 318 328 336
345 339 337 336 332 333 335 331 327 321 322 326 328 326 326 323 321 321 323 321 317 313 309 305 299 298 298 295 295 294 295 296 298 297 298 308 312 315 312 308 317 330 338
Height
1613 1610 1607 1603 1600 1596 1593 1589 1586 1583 1580 1577 1575 1572 1570 1567 1565 1562 1560 1558 1556 1554 1552 1550 1548 1547 1546 1545 1544 1543 1542 1541 1541 1541 1540 1540 1540 1540 1540 1540 1540 1540 1541
1614 1611 1607 1604 1600 1597 1593 1590 1587 1584 1580 1578 1575 1572 1569 1567 1564 1562 1559 1557 1555 1553 1551 1549 1547 1545 1543 1542 1541 1540 1540 1539 1539 1538 1538 1538 1538 1538 1538 1538 1539 1539 1540
1615 1611 1607 1604 1600 1597 1593 1590 1587 1583 1580 1577 1574 1571 1568 1566 1563 1560 1557 1555 1553 1550 1548 1546 1544 1543 1541 1539 1538 1537 1537 1536 1536 1535 1535 1535 1535 1536 1536 1537 1537 1538 1538
1614 1611 1607 1604 1600 1597 1593 1590 1586 1583 1579 1576 1573 1570 1567 1564 1561 1558 1555 1552 1550 1548 1545 1543 1541 1540 1538 1536 1535 1534 1533 1532 1532 1532 1532 1532 1532 1533 1533 1534 1535 1535 1536
1614 1611 1607 1604 1600 1597 1593 1589 1585 1582 1578 1574 1571 1567 1564 1561 1558 1555 1552 1549 1546 1544 1541 1539 1537 1536 1534 1533 1531 1530 1529 1528 1527 1527 1527 1528 1529 1529 1530 1531 1532 1533 1534
1614 1610 1607 1604 1600 1596 1592 1588 1584 1580 1576 1572 1569 1565 1561 1558 1555 1551 1548 1546 1543 1540 1537 1535 1533 1531 1529 1528 1527 1526 1525 1524 1523 1523 1523 1524 1524 1525 1526 1527 1529 1529 1531
1613 1610 1606 1603 1599 1595 1590 1586 1582 1578 1574 1570 1566 1562 1559 1555 1552 1548 1545 1542 1539 1536 1533 1531 1528 1526 1524 1523 1521 1520 1520 1519 1518 1518 1519 1519 1520 1521 1522 1523 1524 1526 1527
1612 1609 1605 1601 1597 1593 1589 1584 1580 1575 1572 1568 1564 1560 1556 1553 1549 1545 1542 1538 1535 1532 1529 1526 1524 1521 1519 1517 1516 1515 1514 1513 1513 1513 1514 1514 1515 1516 1517 1518 1519 1521 1523
1611 1608 1604 1600 1595 1591 1587 1582 1578 1573 1569 1565 1562 1558 1554 1550 1546 1542 1539 1535 1531 1528 1525 1522 1519 1516 1514 1512 1511 1509 1508 1507 1507 1507 1508 1508 1509 1510 1511 1512 1514 1516 1518
1609 1606 1602 1598 1594 1589 1585 1580 1576 1571 1567 1563 1559 1555 1552 1548 1544 1540 1536 1532 1528 1524 1521 1518 1514 1511 1508 1507 1505 1503 1501 1501 1501 1501 1501 1502 1503 1503 1505 1506 1508 1510 1512
1608 1604 1600 1596 1591 1587 1582 1578 1574 1569 1565 1560 1557 1553 1549 1545 1541 1537 1533 1529 1525 1521 1517 1513 1509 1506 1503 1501 1499 1497 1495 1494 1494 1494 1494 1495 1495 1496 1497 1499 1501 1503 1505
1606 1603 1599 1594 1589 1585 1580 1576 1572 1567 1563 1558 1554 1550 1546 1542 1538 1534 1530 1526 1522 1518 1513 1509 1505 1501 1498 1495 1493 1491 1488 1487 1487 1486 1487 1488 1488 1489 1490 1492 1494 1496 1498
1606 1602 1597 1592 1588 1583 1578 1574 1570 1566 1561 1557 1552 1548 1544 1540 1535 1531 1526 1522 1517 1513 1509 1505 1501 1497 1493 1489 1487 1485 1482 1480 1479 1478 1479 1480 1480 1481 1482 1484 1486 1488 1491
1605 1601 1596 1591 1586 1582 1578 1573 1568 1564 1559 1554 1550 1545 1541 1536 1532 1528 1523 1518 1514 1509 1505 1501 1496 1492 1488 1485 1482 1479 1476 1474 1472 1471 1471 1472 1472 1473 1475 1476 1478 1481 1483
1604 1599 1594 1590 1585 1581 1577 1572 1567 1563 1558 1554 1549 1544 1539 1534 1529 1525 1520 1516 1511 1507 1502 1497 1492 1488 1484 1480 1477 1473 1470 1468 1466 1464 1463 1464 1465 1465 1467 1468 1470 1473 1475
1602 1598 1593 1589 1585 1581 1576 1571 1567 1562 1558 1553 1548 1543 1538 1533 1528 1522 1517 1513 1508 1504 1499 1494 1489 1484 1479 1475 1471 1467 1464 1461 1459 1458 1456 1456 1457 1458 1459 1460 1462 1464 1467
1601 1598 1593 1589 1585 1580 1576 1571 1567 1562 1557 1552 1546 1541 1536 1530 1525 1520 1515 1510 1505 1500 1495 1490 1485 1480 1475 1470 1466 1462 1458 1455 1453 1451 1450 1449 1449 1449 1450 1452 1453 1456 1458
1601 1597 1593 1589 1584 1580 1575 1570 1566 1560 1555 1550 1544 1538 1533 1528 1522 1517 1512 1507 1502 1497 1492 1486 1481 1475 1470 1465 1460 1456 1452 1449 1447 1445 1444 1443 1443 1442 1442 1443 1445 1447 1450
1600 1595 1591 1587 1583 1578 1574 1569 1564 1558 1553 1547 1542 1536 1530 1525 1519 1514 1509 1504 1498 1493 1488 1483 1478 1473 1467 1461 1456 1451 1447 1444 1442 1440 1439 1438 1437 1436 1435 1435 1437 1439 1442
1598 1594 1590 1586 1581 1576 1571 1566 1561 1556 1551 1545 1539 1533 1528 1522 1516 1511 1506 1500 1495 1490 1485 1480 1474 1470 1465 1458 1452 1446 1442 1439 1436 1435 1434 1433 1432 1430 1429 1428 1429 1431 1434
1597 1593 1588 1584 1579 1574 1568 1562 1557 1551 1547 1542 1536 1531 1525 1519 1513 1508 1502 1497 1492 1486 1482 1477 1471 1466 1461 1456 1449 1441 1436 1434 1432 1431 1430 1429 1427 1425 1424 1423 1423 1424 1426
1595 1591 1586 1582 1577 1572 1566 1560 1555 1549 1544 1538 1533 1528 1522 1516 1510 1504 1499 1493 1488 1483 1478 1474 1469 1463 1459 1456 1451 1443 1435 1430 1429 1427 1426 1425 1423 1421 1420 1418 1418 1418 1420
1593 1589 1584 1580 1575 1570 1564 1558 1552 1546 1540 1534 1528 1523 1518 1512 1507 1501 1496 1490 1485 1480 1475 1470 1466 1461 1456 1453 1452 1449 1443 1436 1427 1422 1422 1421 1419 1417 1415 1414 1414 1413 1414
1591 1587 1583 1578 1573 1568 1562 1556 1549 1543 1536 1531 1525 1519 1514 1509 1503 1497 1492 1486 1481 1476 1471 1467 1463 1459 1454 1450 1448 1447 1445 1440 1435 1423 1418 1417 1416 1414 1413 1411 1410 1409 1410
1589 1585 1581 1577 1572 1566 1561 1555 1548 1542 1535 1529 1522 1516 1510 1505 1499 1494 1488 1482 1477 1472 1467 1463 1459 1455 1451 1448 1444 1442 1439 1437 1433 1429 1419 1414 1412 1411 1410 1408 1407 1406 1406
1587 1584 1580 1575 1570 1564 1558 1552 1546 1539 1532 1525 1519 1512 1506 1500 1495 1490 1484 1479 1474 1468 1463 1459 1454 1450 1447 1444 1440 1438 1435 1433 1429 1426 1420 1414 1410 1408 1407 1406 1404 1403 1403